Content
SEND FEEDBACK

Daily
Averages
Monthly
Summary
United States of America

MAGNOLIA, ARKANSAS


Home > North America > United States > Arkansas
Elevation: 313 feet     Latitude: 33 14N     Longitude: 093 13W

WEATHER
 
SELECT A DAY
Number of Records: 202,499;   Date Range: 1/1/95 - 8/30/14
 
SHARE

PRINT THIS DATA

[ ← Previous Day ]
WEATHER ALMANAC - JANUARY 31, 2013
[ Next Day → ]
[ °C ]   °F
Weather ElementAverageHighLow
Temperature44.5 °F61 °F (2:53 pm)30 °F (1:53 am)
Dewpoint27.8 °F33.1 °F (6:53 pm)24.1 °F (4:53 pm)
Humidity57.4 %88 % (1:53 am)25 % (3:53 pm)
Barometer30.19 in30.32 in (11:53 pm)30.14 in (1:53 am)
Wind Speed6.2 mph18.4 mph (2:53 pm)
Wind Gust23 mph (1:53 pm)
Weather ElementAverage
Visibility10 mi
Wind DirectionSSE (173.9 °)

Weather ElementTotal
Precipitation---
Heating Degree Days19.5 (Base 65)
Averaged from 23 records on January 31, 2013
WEATHER CONDITIONS BREAKOUT
WIND DIRECTION BREAKOUT
WEATHER BY HOUR - JANUARY 31, 2013
[ °C ]   °F
Local TimeTemperatureDewpointHumidityBarometerVisibilityWind DirectionWind SpeedGust SpeedPrecipitationEventsConditions
1:53 AM30.0 °F27.0 °F88 %30.14 in10.0 miSW (220°)3.5 mphClear
2:53 AM30.9 °F27.0 °F85 %30.15 in10.0 miSSW (210°)4.6 mphClear
3:53 AM30.9 °F27.0 °F85 %30.14 in10.0 miCalmClear
4:53 AM30.0 °F27.0 °F88 %30.15 in10.0 miSSW (210°)3.5 mphClear
5:53 AM30.0 °F26.1 °F85 %30.18 in10.0 miSSW (210°)3.5 mphClear
6:53 AM30.9 °F26.1 °F82 %30.18 in10.0 miSW (220°)3.5 mphClear
7:53 AM32.0 °F28.9 °F88 %30.20 in10.0 miSSW (210°)3.5 mphClear
8:53 AM39.0 °F28.9 °F67 %30.23 in10.0 miSW (230°)5.8 mphClear
9:53 AM46.0 °F28.9 °F51 %30.23 in10.0 miSW (230°)5.8 mphClear
10:53 AM52.0 °F26.1 °F37 %30.23 in10.0 miSW (220°)10.4 mphClear
11:53 AM55.0 °F26.1 °F33 %30.22 in10.0 miWSW (240°)10.4 mph20.7 mphClear
12:53 PM57.9 °F27.0 °F31 %30.19 in10.0 miSW (230°)11.5 mphClear
1:53 PM59.0 °F27.0 °F29 %30.16 in10.0 miSW (220°)13.8 mph23.0 mphClear
2:53 PM61.0 °F26.1 °F26 %30.14 in10.0 miSSW (200°)18.4 mph21.9 mphClear
3:53 PM61.0 °F25.0 °F25 %30.14 in10.0 miSSW (210°)13.8 mphClear
4:53 PM60.1 °F24.1 °F25 %30.14 in10.0 miSSW (210°)9.2 mphClear
5:53 PM54.0 °F28.0 °F37 %30.14 in10.0 miSSW (200°)4.6 mphClear
6:53 PM46.0 °F33.1 °F61 %30.19 in10.0 miCalmClear
7:53 PM44.1 °F28.9 °F55 %30.22 in10.0 miCalmClear
8:53 PM42.1 °F32.0 °F67 %30.23 in10.0 miCalmClear
9:53 PM42.1 °F30.9 °F65 %30.25 in10.0 miSSW (210°)3.5 mphClear
10:53 PM45.0 °F30.0 °F56 %30.29 in10.0 miNW (310°)6.9 mphClear
11:53 PM44.1 °F28.9 °F55 %30.32 in10.0 miNorth (10°)5.8 mphClear
Hourly data recorded from KELD, located miles away from Magnolia, Arkansas







STORIES FROM OUR PARTNERS